Angoon, AK

4:56 PM AKST on December 06, 2019 (GMT -0900)
Angoon

Weather History for PAGN - May, 2019

Change the Weather History Date:

Wednesday, May 29, 2019

  Actual Average (WUND) Record (WUND)
Temperature  
Mean Temperature 53 °F -  
Max Temperature 61 °F - - (-1)
Min Temperature 46 °F - - (-1)
Degree Days  
Heating Degree Days 12    
Growing Degree Days 3 (Base 50)    
Moisture  
Dew Point 43 °F    
Average Humidity 69    
Maximum Humidity 89    
Minimum Humidity 51    
Precipitation  
Precipitation 0.00 in - - ()
Sea Level Pressure  
Sea Level Pressure 30.14 in    
Wind  
Wind Speed 1 mph (NNW)    
Max Wind Speed 6 mph    
Max Gust Speed -    
Visibility 10 miles    
Events      
Averages and records for this station are not official NWS values.
T = Trace of Precipitation, MM = Missing Value Source: NWS Daily Summary

Daily Weather History Graph

Daily Weather History Graph

Search for Another Location

Airport or City:

Astronomy

May. 29, 2019 Rise Set
Actual Time 4:13 AM AKDT 9:39 PM AKDT
Civil Twilight 3:10 AM AKDT 10:42 PM AKDT
Nautical Twilight 1:28 AM AKDT 12:23 AM AKDT
Astronomical Twilight Sun does not rise Sun does not rise
Moon 3:19 AM AKDT (5/29) 3:37 PM AKDT (5/29)
Length of Visible Light 19h 31m
Length of Day
17h 26m
Waning Crescent, 22% of the Moon is Illuminated
May 29
Waning Crescent
Jun 3
New
Jun 9
First Quarter
Jun 17
Full
Jun 25
Last Quarter

Hourly Weather History & Observations

Time (AKDT) Temp. Dew Point Humidity Pressure Visibility Wind Dir Wind Speed Gust Speed Precip Events Conditions
12:30 AM 50.0 °F 44.6 °F 82% 30.16 in 10.0 mi Calm Calm - N/A   Mostly Cloudy
12:56 AM 50.0 °F 44.1 °F 80% 30.14 in 10.0 mi Calm Calm - N/A   Scattered Clouds
1:56 AM 48.9 °F 43.0 °F 80% 30.14 in 10.0 mi Calm Calm - N/A   Clear
2:56 AM 46.9 °F 43.0 °F 86% 30.15 in 10.0 mi Calm Calm - N/A   Scattered Clouds
3:56 AM 46.0 °F 43.0 °F 89% 30.15 in 10.0 mi Calm Calm - N/A   Overcast
4:56 AM 46.0 °F 43.0 °F 89% 30.15 in 10.0 mi Calm Calm - N/A   Overcast
6:56 AM 51.1 °F 43.0 °F 74% 30.16 in 10.0 mi Calm Calm - N/A   Clear
7:56 AM 52.0 °F 43.0 °F 71% 30.17 in 10.0 mi Variable 3.5 mph - N/A   Clear
8:56 AM 52.0 °F 44.1 °F 74% 30.17 in 10.0 mi Variable 3.5 mph - N/A   Clear
9:56 AM 53.1 °F 44.1 °F 71% 30.16 in 10.0 mi NNW 3.5 mph - N/A   Clear
10:56 AM 54.0 °F 41.0 °F 62% 30.16 in 10.0 mi NNW 3.5 mph - N/A   Clear
11:56 AM 54.0 °F 42.1 °F 64% 30.16 in 10.0 mi Calm Calm - N/A   Clear
12:56 PM 54.0 °F 42.1 °F 64% 30.16 in 10.0 mi Variable 5.8 mph - N/A   Clear
1:56 PM 57.0 °F 41.0 °F 55% 30.15 in 10.0 mi Variable 3.5 mph - N/A   Clear
2:56 PM 59.0 °F 44.1 °F 58% 30.15 in 10.0 mi Variable 3.5 mph - N/A   Clear
3:56 PM 57.9 °F 43.0 °F 58% 30.14 in 10.0 mi Calm Calm - N/A   Clear
4:56 PM 60.1 °F 42.1 °F 51% 30.13 in 10.0 mi Calm Calm - N/A   Clear
5:56 PM 57.9 °F 43.0 °F 58% 30.12 in 10.0 mi Calm Calm - N/A   Clear
6:56 PM 57.0 °F 43.0 °F 59% 30.11 in 10.0 mi Calm Calm - N/A   Clear
7:56 PM 55.9 °F 42.1 °F 60% 30.10 in 10.0 mi Calm Calm - N/A   Clear
8:56 PM 55.0 °F 43.0 °F 64% 30.10 in 10.0 mi Calm Calm - N/A   Clear
9:56 PM 53.1 °F 43.0 °F 69% 30.10 in 10.0 mi Calm Calm - N/A   Clear
10:56 PM 52.0 °F 44.1 °F 74% 30.10 in 10.0 mi Variable 4.6 mph - N/A   Clear
11:56 PM 51.1 °F 43.0 °F 74% 30.10 in 10.0 mi Calm Calm - N/A   Clear